When you browse on this site, cookies collect data to enhance your experience and personalize the content and advertising you see.
Visit our Privacy Policy to learn more. By continuing to use the site, you agree to this use of cookies and data.
  • In Denmark
  • List of Countries
  • For 7 days
  • Water Temperature
  • Satellite Maps
  • Weather Map
  • Weather Widgets
  • user-avatar
    Login

    Hourly Weather Armawir

    Today, 16 July, Tuesday

    Time Temperature Precipitation Wind Pressure Humidity
    00:00 +25°C° 0 mm 3 mps 683 mmHg 33%
    01:00 +24°C° 0 mm 3 mps 683 mmHg 36%
    02:00 +22°C° 0 mm 3 mps 682 mmHg 39%
    03:00 +22°C° 0 mm 3 mps 682 mmHg 44%
    04:00 +22°C° 0 mm 3 mps 682 mmHg 46%
    05:00 +22°C° 0 mm 3 mps 683 mmHg 47%
    06:00 +24°C° 0 mm 3 mps 683 mmHg 49%
    07:00 +26°C° 0 mm 3 mps 683 mmHg 43%
    08:00 +28°C° 0 mm 3 mps 683 mmHg 38%
    09:00 +30°C° 0 mm 3 mps 683 mmHg 31%
    10:00 +31°C° 0 mm 3 mps 684 mmHg 27%
    11:00 +34°C° 0 mm 3 mps 684 mmHg 23%
    12:00 +35°C° 0 mm 2 mps 684 mmHg 19%
    13:00 +35°C° 0 mm 2 mps 683 mmHg 18%
    14:00 +36°C° 0 mm 2 mps 683 mmHg 17%
    15:00 +37°C° 0 mm 2 mps 683 mmHg 16%
    16:00 +36°C° 0 mm 2 mps 683 mmHg 17%
    17:00 +36°C° 0 mm 2 mps 683 mmHg 17%
    18:00 +36°C° 0 mm 2 mps 683 mmHg 18%
    19:00 +33°C° 0 mm 3 mps 683 mmHg 26%
    20:00 +30°C° 0 mm 3 mps 683 mmHg 34%
    21:00 +27°C° 0 mm 4 mps 683 mmHg 42%
    22:00 +26°C° 0 mm 4 mps 683 mmHg 44%
    23:00 +25°C° 0 mm 3 mps 683 mmHg 47%

    Tomorrow, 17 July, Wednesday

    Time Temperature Precipitation Wind Pressure Humidity
    00:00 +24°C° 0 mm 3 mps 683 mmHg 49%
    01:00 +24°C° 0 mm 3 mps 683 mmHg 51%
    02:00 +22°C° 0 mm 3 mps 683 mmHg 53%
    03:00 +21°C° 0 mm 2 mps 682 mmHg 55%
    04:00 +23°C° 0 mm 2 mps 683 mmHg 55%
    05:00 +23°C° 0 mm 2 mps 683 mmHg 54%
    06:00 +24°C° 0 mm 2 mps 683 mmHg 53%
    07:00 +26°C° 0 mm 2 mps 683 mmHg 48%
    08:00 +27°C° 0 mm 2 mps 683 mmHg 43%
    09:00 +29°C° 0 mm 2 mps 683 mmHg 38%
    10:00 +31°C° 0 mm 2 mps 683 mmHg 34%
    11:00 +34°C° 0 mm 2 mps 683 mmHg 30%
    12:00 +35°C° 0 mm 2 mps 683 mmHg 26%
    13:00 +36°C° 0 mm 2 mps 683 mmHg 24%
    14:00 +37°C° 0 mm 2 mps 683 mmHg 22%
    15:00 +38°C° 0 mm 2 mps 683 mmHg 20%
    16:00 +38°C° 0 mm 2 mps 682 mmHg 20%
    17:00 +38°C° 0 mm 2 mps 682 mmHg 20%
    18:00 +38°C° 0 mm 2 mps 682 mmHg 21%
    19:00 +35°C° 0 mm 2 mps 683 mmHg 26%
    20:00 +31°C° 0 mm 3 mps 683 mmHg 32%
    21:00 +29°C° 0 mm 3 mps 683 mmHg 38%
    22:00 +28°C° 0 mm 3 mps 683 mmHg 41%
    23:00 +26°C° 0 mm 2 mps 682 mmHg 45%

    Day after tomorrow, 18 July, Thursday

    Time Temperature Precipitation Wind Pressure Humidity
    00:00 +25°C° 0 mm 2 mps 682 mmHg 48%
    01:00 +25°C° 0 mm 2 mps 682 mmHg 51%
    02:00 +24°C° 0 mm 2 mps 682 mmHg 53%
    03:00 +23°C° 0 mm 2 mps 682 mmHg 56%
    04:00 +24°C° 0 mm 2 mps 682 mmHg 55%
    05:00 +25°C° 0 mm 2 mps 683 mmHg 55%
    06:00 +25°C° 0 mm 2 mps 683 mmHg 54%
    07:00 +27°C° 0 mm 2 mps 683 mmHg 48%
    08:00 +29°C° 0 mm 1 mps 683 mmHg 42%
    09:00 +31°C° 0 mm 1 mps 683 mmHg 36%
    10:00 +34°C° 0 mm 2 mps 684 mmHg 31%
    11:00 +36°C° 0 mm 2 mps 684 mmHg 26%
    12:00 +37°C° 0 mm 2 mps 684 mmHg 21%
    13:00 +38°C° 0 mm 2 mps 683 mmHg 19%
    14:00 +39°C° 0 mm 2 mps 683 mmHg 17%
    15:00 +40°C° 0 mm 2 mps 683 mmHg 15%
    16:00 +40°C° 0 mm 2 mps 683 mmHg 14%
    17:00 +40°C° 0 mm 2 mps 683 mmHg 14%
    18:00 +40°C° 0 mm 2 mps 684 mmHg 14%
    19:00 +36°C° 0 mm 2 mps 684 mmHg 20%
    20:00 +33°C° 0 mm 3 mps 684 mmHg 25%
    21:00 +29°C° 0 mm 3 mps 684 mmHg 31%
    22:00 +28°C° 0 mm 3 mps 684 mmHg 30%
    23:00 +27°C° 0 mm 3 mps 684 mmHg 30%

    19 July, Friday

    Time Temperature Precipitation Wind Pressure Humidity
    00:00 +26°C° 0 mm 2 mps 684 mmHg 29%
    01:00 +25°C° 0 mm 2 mps 684 mmHg 32%
    02:00 +24°C° 0 mm 2 mps 684 mmHg 35%
    03:00 +24°C° 0 mm 2 mps 684 mmHg 39%
    04:00 +24°C° 0 mm 2 mps 685 mmHg 42%
    05:00 +24°C° 0 mm 3 mps 685 mmHg 45%
    06:00 +25°C° 0 mm 3 mps 685 mmHg 48%
    07:00 +27°C° 0 mm 3 mps 685 mmHg 44%
    08:00 +29°C° 0 mm 3 mps 686 mmHg 40%
    09:00 +31°C° 0 mm 3 mps 686 mmHg 36%
    10:00 +34°C° 0 mm 3 mps 686 mmHg 30%
    11:00 +35°C° 0 mm 2 mps 686 mmHg 25%
    12:00 +37°C° 0 mm 2 mps 686 mmHg 19%
    13:00 +37°C° 0 mm 1 mps 686 mmHg 18%
    14:00 +39°C° 0 mm 1 mps 686 mmHg 16%
    15:00 +39°C° 0 mm 1 mps 685 mmHg 14%
    16:00 +39°C° 0 mm 1 mps 685 mmHg 15%
    17:00 +39°C° 0 mm 2 mps 686 mmHg 17%
    18:00 +38°C° 0 mm 2 mps 686 mmHg 18%
    19:00 +35°C° 0 mm 3 mps 686 mmHg 28%
    20:00 +31°C° 0 mm 3 mps 686 mmHg 38%
    21:00 +28°C° 0 mm 4 mps 686 mmHg 48%
    22:00 +27°C° 0 mm 4 mps 686 mmHg 51%
    23:00 +26°C° 0 mm 3 mps 687 mmHg 54%

    20 July, Saturday

    Time Temperature Precipitation Wind Pressure Humidity
    00:00 +25°C° 0 mm 3 mps 687 mmHg 56%
    01:00 +25°C° 0 mm 3 mps 687 mmHg 57%
    02:00 +25°C° 0 mm 3 mps 687 mmHg 58%
    03:00 +24°C° 0 mm 2 mps 687 mmHg 59%
    04:00 +25°C° 0 mm 2 mps 687 mmHg 58%
    05:00 +25°C° 0 mm 2 mps 688 mmHg 57%
    06:00 +25°C° 0 mm 2 mps 688 mmHg 56%
    07:00 +27°C° 0 mm 2 mps 688 mmHg 52%
    08:00 +29°C° 0 mm 2 mps 688 mmHg 47%
    09:00 +31°C° 0 mm 1 mps 688 mmHg 42%
    10:00 +34°C° 0 mm 2 mps 688 mmHg 37%
    11:00 +35°C° 0 mm 3 mps 689 mmHg 33%
    12:00 +37°C° 0 mm 3 mps 689 mmHg 28%
    13:00 +38°C° 0 mm 4 mps 689 mmHg 25%
    14:00 +40°C° 0 mm 4 mps 688 mmHg 23%
    15:00 +41°C° 0 mm 5 mps 688 mmHg 20%
    16:00 +41°C° 0 mm 5 mps 688 mmHg 22%
    17:00 +40°C° 0 mm 5 mps 688 mmHg 24%
    18:00 +39°C° 0 mm 5 mps 688 mmHg 26%
    19:00 +36°C° 0 mm 4 mps 688 mmHg 34%
    20:00 +33°C° 0 mm 4 mps 688 mmHg 42%
    21:00 +29°C° 0 mm 3 mps 689 mmHg 51%
    22:00 +28°C° 0 mm 3 mps 689 mmHg 54%
    23:00 +27°C° 0 mm 2 mps 689 mmHg 57%

    21 July, Sunday

    Time Temperature Precipitation Wind Pressure Humidity
    00:00 +26°C° 0 mm 2 mps 689 mmHg 60%
    01:00 +26°C° 0 mm 2 mps 688 mmHg 61%
    02:00 +25°C° 0 mm 2 mps 688 mmHg 62%
    03:00 +25°C° 0 mm 2 mps 688 mmHg 63%
    04:00 +25°C° 0 mm 2 mps 688 mmHg 61%
    05:00 +25°C° 0 mm 2 mps 689 mmHg 59%
    06:00 +26°C° 0 mm 2 mps 689 mmHg 56%
    07:00 +28°C° 0 mm 1 mps 689 mmHg 50%
    08:00 +30°C° 0 mm 1 mps 689 mmHg 44%
    09:00 +32°C° 0 mm 1 mps 689 mmHg 37%
    10:00 +35°C° 0 mm 2 mps 689 mmHg 33%
    11:00 +37°C° 0 mm 2 mps 689 mmHg 28%
    12:00 +39°C° 0 mm 3 mps 689 mmHg 24%
    13:00 +40°C° 0 mm 3 mps 689 mmHg 21%
    14:00 +42°C° 0 mm 3 mps 688 mmHg 19%
    15:00 +43°C° 0 mm 3 mps 688 mmHg 17%
    16:00 +43°C° 0 mm 3 mps 688 mmHg 18%
    17:00 +42°C° 0 mm 3 mps 688 mmHg 20%
    18:00 +42°C° 0 mm 3 mps 688 mmHg 22%
    19:00 +37°C° 0 mm 3 mps 688 mmHg 30%
    20:00 +34°C° 0 mm 3 mps 688 mmHg 38%
    21:00 +30°C° 0 mm 3 mps 688 mmHg 46%
    22:00 +29°C° 0 mm 3 mps 687 mmHg 48%
    23:00 +28°C° 0 mm 3 mps 687 mmHg 50%
    Show more